Weather History for KORS - January, 2012

Change the Weather History Date:

Thursday, January 26, 2012

  Actual Average (KBLI) Record (KBLI)
Temperature  
Mean Temperature 39 °F 40 °F  
Max Temperature 46 °F 47 °F 60 °F (2015)
Min Temperature 32 °F 33 °F 10 °F (1957)
Degree Days  
Heating Degree Days 26 25  
Month to date heating degree days 673  
Cooling Degree Days 0 0  
Month to date cooling degree days 0  
Year to date cooling degree days 0  
Moisture  
Dew Point 33 °F    
Average Humidity 74    
Maximum Humidity 100    
Minimum Humidity 46    
Precipitation  
Precipitation 0.00 in 0.14 in 1.10 in (1971)
Month to date precipitation 3.97  
Year to date precipitation 3.97  
Sea Level Pressure  
Sea Level Pressure 30.22 in    
Wind  
Wind Speed 7 mph (SW)    
Max Wind Speed 17 mph    
Max Gust Speed 29 mph    
Visibility 10 miles    
Events      
T = Trace of Precipitation, MM = Missing Value Source: NWS Daily Summary

Daily Weather History Graph

Daily Weather History Graph

Search for Another Location

Airport or City:

Trip Planner

Search our weather history database for the weather conditions in past years. The results will help you decide how hot, cold, wet, or windy it might be!

Date:

Astronomy

Jan. 26, 2012 Rise Set
Actual Time 7:49 AM PST 4:59 PM PST
Civil Twilight 7:14 AM PST 5:34 PM PST
Nautical Twilight 6:36 AM PST 6:12 PM PST
Astronomical Twilight 5:59 AM PST 6:49 PM PST
Moon 8:56 AM PST (1/26) 9:23 PM PST (1/26)
Length of Visible Light 10h 19m
Length of Day
9h 10m
Waxing Crescent, 13% of the Moon is Illuminated
Jan 26
Waxing Crescent
Jan 30
First Quarter
Feb 7
Full
Feb 14
Last Quarter
Feb 21
New

Hourly Weather History & Observations

Time (PST) Temp. Windchill Dew Point Humidity Pressure Visibility Wind Dir Wind Speed Gust Speed Precip Events Conditions
12:15 AM 44.6 °F 39.7 °F 41.0 °F 87% 29.85 in 9.0 mi South 9.2 mph 18.4 mph N/A   Overcast
12:35 AM 44.6 °F 38.8 °F 41.0 °F 87% 29.85 in 8.0 mi SSW 11.5 mph 23.0 mph N/A   Overcast
12:55 AM 44.6 °F 37.2 °F 41.0 °F 87% 29.85 in 10.0 mi SSW 17.3 mph 26.5 mph N/A   Overcast
1:15 AM 44.6 °F 38.8 °F 41.0 °F 87% 29.84 in 10.0 mi SW 11.5 mph 20.7 mph N/A   Overcast
1:35 AM 44.6 °F 39.7 °F 41.0 °F 87% 29.86 in 10.0 mi SSW 9.2 mph - N/A   Mostly Cloudy
1:55 AM 44.6 °F 40.2 °F 41.0 °F 87% 29.86 in 10.0 mi South 8.1 mph - N/A   Mostly Cloudy
2:15 AM 44.6 °F 38.1 °F 39.2 °F 81% 29.86 in 9.0 mi SSW 13.8 mph 23.0 mph N/A   Overcast
2:35 AM 44.6 °F 38.1 °F 39.2 °F 81% 29.86 in 10.0 mi South 13.8 mph 26.5 mph N/A   Mostly Cloudy
3:15 AM 44.6 °F 38.4 °F 37.4 °F 76% 29.89 in 10.0 mi SSW 12.7 mph 28.8 mph N/A   Mostly Cloudy
3:35 AM 44.6 °F 39.7 °F 37.4 °F 76% 29.91 in 10.0 mi WSW 9.2 mph - N/A   Scattered Clouds
4:15 AM 44.6 °F 39.7 °F 35.6 °F 71% 29.95 in 10.0 mi WSW 9.2 mph 17.3 mph N/A   Clear
4:35 AM 42.8 °F 39.3 °F 35.6 °F 76% 29.97 in 10.0 mi WSW 5.8 mph - N/A   Clear
4:55 AM 42.8 °F 37.5 °F 35.6 °F 76% 29.99 in 10.0 mi SSW 9.2 mph - N/A   Partly Cloudy
5:15 AM 41.0 °F 34.7 °F 33.8 °F 76% 30.02 in 10.0 mi SSW 10.4 mph - N/A   Clear
5:35 AM 41.0 °F 34.7 °F 32.0 °F 70% 30.04 in 10.0 mi SW 10.4 mph 16.1 mph N/A   Clear
6:15 AM 41.0 °F 35.2 °F 32.0 °F 70% 30.07 in 10.0 mi SW 9.2 mph - N/A   Clear
6:35 AM 41.0 °F 35.2 °F 32.0 °F 70% 30.07 in 10.0 mi SSW 9.2 mph - N/A   Clear
6:55 AM 41.0 °F 35.8 °F 32.0 °F 70% 30.09 in 10.0 mi SSW 8.1 mph - N/A   Clear
7:15 AM 39.2 °F 37.0 °F 32.0 °F 75% 30.11 in 10.0 mi WSW 3.5 mph - N/A   Clear
7:35 AM 39.2 °F 35.0 °F 32.0 °F 75% 30.12 in 10.0 mi South 5.8 mph - N/A   Clear
7:55 AM 37.4 °F 32.8 °F 32.0 °F 81% 30.14 in 10.0 mi SSW 5.8 mph - N/A   Clear
8:15 AM 37.4 °F 33.8 °F 32.0 °F 81% 30.16 in 10.0 mi SSW 4.6 mph - N/A   Clear
8:35 AM 37.4 °F - 32.0 °F 81% 30.18 in 10.0 mi Calm Calm - N/A   Clear
8:55 AM 39.2 °F - 32.0 °F 75% 30.19 in 10.0 mi Calm Calm - N/A   Clear
9:15 AM 39.2 °F 35.9 °F 32.0 °F 75% 30.21 in 10.0 mi SSW 4.6 mph - N/A   Clear
9:35 AM 41.0 °F 37.1 °F 32.0 °F 70% 30.22 in 10.0 mi SSW 5.8 mph - N/A   Clear
9:55 AM 42.8 °F - 32.0 °F 66% 30.24 in 10.0 mi Calm Calm - N/A   Clear
10:15 AM 42.8 °F 39.3 °F 30.2 °F 61% 30.26 in 10.0 mi WSW 5.8 mph - N/A   Clear
10:35 AM 42.8 °F 39.3 °F 28.4 °F 57% 30.27 in 10.0 mi West 5.8 mph - N/A   Clear
10:55 AM 42.8 °F 39.3 °F 30.2 °F 61% 30.28 in 10.0 mi WSW 5.8 mph - N/A   Clear
11:15 AM 44.6 °F 41.4 °F 30.2 °F 57% 30.29 in 10.0 mi WSW 5.8 mph - N/A   Clear
11:35 AM 44.6 °F 42.2 °F 28.4 °F 53% 30.30 in 10.0 mi West 4.6 mph - N/A   Clear
11:55 AM 44.6 °F 42.2 °F 28.4 °F 53% 30.30 in 10.0 mi WSW 4.6 mph - N/A   Clear
12:15 PM 44.6 °F - 28.4 °F 53% 30.31 in 10.0 mi Calm Calm - N/A   Clear
12:35 PM 44.6 °F 40.7 °F 28.4 °F 53% 30.31 in 10.0 mi SW 6.9 mph - N/A   Clear
12:55 PM 44.6 °F 43.1 °F 28.4 °F 53% 30.31 in 10.0 mi WSW 3.5 mph - N/A   Clear
1:15 PM 44.6 °F 41.4 °F 28.4 °F 53% 30.32 in 10.0 mi WSW 5.8 mph - N/A   Clear
1:35 PM 44.6 °F 43.1 °F 28.4 °F 53% 30.33 in 10.0 mi NW 3.5 mph - N/A   Clear
1:55 PM 46.4 °F 42.9 °F 26.6 °F 46% 30.33 in 10.0 mi NW 6.9 mph - N/A   Clear
2:15 PM 46.4 °F 42.9 °F 26.6 °F 46% 30.34 in 10.0 mi NW 6.9 mph - N/A   Clear
2:35 PM 46.4 °F 44.3 °F 26.6 °F 46% 30.35 in 10.0 mi NW 4.6 mph - N/A   Clear
2:55 PM 46.4 °F - 26.6 °F 46% 30.36 in 10.0 mi Calm Calm - N/A   Clear
3:15 PM 46.4 °F 45.2 °F 26.6 °F 46% 30.37 in 10.0 mi NW 3.5 mph - N/A   Clear
3:35 PM 44.6 °F - 33.8 °F 66% 30.38 in 10.0 mi Calm Calm - N/A   Clear
3:55 PM 44.6 °F - 35.6 °F 71% 30.39 in 10.0 mi Calm Calm - N/A   Clear
4:15 PM 41.0 °F - 35.6 °F 81% 30.40 in 10.0 mi Calm Calm - N/A   Clear
4:55 PM 39.2 °F - 33.8 °F 81% 30.42 in 10.0 mi Calm Calm - N/A   Clear
5:15 PM 41.0 °F - 33.8 °F 76% 30.43 in 10.0 mi Calm Calm - N/A   Scattered Clouds
5:55 PM 37.4 °F - 33.8 °F 87% 30.44 in 10.0 mi Calm Calm - N/A   Partly Cloudy
6:15 PM 35.6 °F - 32.0 °F 87% 30.45 in 10.0 mi Calm Calm - N/A   Clear
6:35 PM 33.8 °F - 32.0 °F 93% 30.46 in 10.0 mi Calm Calm - N/A   Clear
6:55 PM 35.6 °F - 32.0 °F 87% 30.47 in 10.0 mi North - - N/A   Clear
7:15 PM 33.8 °F - 32.0 °F 93% 30.48 in 10.0 mi Calm Calm - N/A   Clear
7:35 PM 33.8 °F - 32.0 °F 93% 30.48 in 10.0 mi Calm Calm - N/A   Clear
7:55 PM 35.6 °F - 32.0 °F 87% 30.49 in 10.0 mi Calm Calm - N/A   Clear
8:15 PM 33.8 °F - 32.0 °F 93% 30.50 in 10.0 mi Calm Calm - N/A   Clear
8:35 PM 32.0 °F - 32.0 °F 100% 30.51 in 10.0 mi Calm Calm - N/A   Clear
8:55 PM 32.0 °F 27.5 °F 32.0 °F 100% 30.52 in 10.0 mi SSW 4.6 mph - N/A   Clear
9:15 PM 32.0 °F - 32.0 °F 100% 30.53 in 10.0 mi Calm Calm - N/A   Clear
9:35 PM 32.0 °F 28.7 °F 32.0 °F 100% 30.54 in 10.0 mi South 3.5 mph - N/A   Clear
9:55 PM 32.0 °F - 32.0 °F 100% 30.54 in 10.0 mi North - - N/A   Clear
10:15 PM 32.0 °F - 30.2 °F 93% 30.55 in 10.0 mi Calm Calm - N/A   Clear
10:35 PM 32.0 °F 27.5 °F 30.2 °F 93% 30.55 in 10.0 mi South 4.6 mph - N/A   Clear
10:55 PM 32.0 °F 27.5 °F 32.0 °F 100% 30.55 in 10.0 mi South 4.6 mph - N/A   Clear
11:15 PM 32.0 °F - 30.2 °F 93% 30.55 in 10.0 mi Calm Calm - N/A   Clear
11:35 PM 32.0 °F 27.5 °F 30.2 °F 93% 30.56 in 10.0 mi SSW 4.6 mph - N/A   Clear
11:55 PM 32.0 °F - 30.2 °F 93% 30.56 in 10.0 mi Calm Calm - N/A   Clear